Wind_Speed
17 17 17 17 17 17 17 17 18 19 20 19 19 19 19 19 19 19 19 19 19 19 18 17 17 17 17 16 15 15 14 14 13 12 12 12 12 13 13 14 14 14 14 14 13 12 11 10 8 7 6 5 3 3 2 2 2 3 3 4 5 5 6 7 7 8 9 9 10
17 17 16 16 15 15 15 15 15 16 17 18 19 19 18 19 18 17 17 17 17 16 16 16 16 16 15 14 14 13 13 12 12 12 13 13 14 14 15 15 15 14 14 14 13 12 10 9 7 6 5 4 3 2 2 3 3 4 4 5 6 7 8 8 9 10 11 12 13
16 16 15 15 15 15 15 14 15 16 17 19 19 19 18 18 17 17 16 15 14 13 14 16 16 15 14 13 13 12 12 12 13 13 14 15 15 15 14 14 14 13 12 12 11 10 9 8 6 5 4 3 3 3 3 4 5 5 6 7 8 9 10 11 11 12 13 14 15
16 16 15 15 15 15 15 14 15 16 18 20 21 20 19 19 18 18 16 13 11 13 15 16 15 15 14 14 13 13 13 12 13 14 15 15 14 13 13 12 11 11 10 9 9 8 8 7 6 5 5 4 4 5 5 6 7 8 9 10 11 12 12 13 14 14 15 16 17
17 17 17 16 15 14 14 14 15 16 17 18 20 21 21 20 19 18 17 14 13 15 17 17 16 16 15 15 15 15 14 14 14 14 14 14 13 12 11 10 10 9 8 8 7 7 7 6 6 6 6 6 6 6 7 8 9 10 11 13 14 14 15 15 16 16 17 18 18
18 18 17 17 15 13 12 14 14 14 14 15 17 19 19 19 17 16 16 18 19 19 19 19 18 17 17 16 16 16 16 15 14 14 14 13 12 11 10 9 8 7 7 6 6 6 6 6 7 7 7 7 7 8 10 10 11 12 13 14 15 15 15 15 16 18 18 19 19
17 16 16 17 16 14 12 12 10 9 8 10 12 14 16 16 14 14 16 19 21 21 21 20 19 18 18 17 16 16 16 15 14 13 12 11 10 9 8 7 6 6 5 5 6 6 6 7 7 7 8 9 9 10 11 12 13 13 13 14 15 16 16 16 18 18 18 19 19
13 13 13 15 16 14 12 10 8 6 6 7 8 10 11 12 13 14 17 20 22 22 20 19 18 18 17 16 15 14 14 13 12 11 9 8 7 6 5 5 5 5 5 6 6 6 6 7 7 7 7 8 9 10 11 12 13 14 14 15 16 17 18 18 19 19 19 19 19
10 9 9 11 12 12 10 8 8 7 6 7 8 10 10 12 13 16 19 21 21 19 18 17 17 16 16 15 13 12 11 10 9 8 7 5 4 3 3 3 4 4 5 5 5 6 6 6 6 7 7 8 8 10 11 12 13 13 14 15 16 16 17 18 18 18 19 20 20
9 7 7 7 8 8 8 6 7 7 7 8 9 10 11 14 17 20 21 20 18 17 16 16 15 15 14 12 11 10 8 7 6 4 3 2 1 1 2 3 3 3 4 4 4 5 5 6 6 6 7 8 9 10 11 12 12 13 13 15 15 16 17 18 18 18 19 19 20
8 7 6 6 7 8 9 9 9 9 9 9 9 10 13 17 20 21 21 18 17 16 16 15 14 12 11 10 8 6 4 3 2 1 1 1 2 2 2 3 3 3 3 4 4 4 5 6 6 6 7 8 9 10 11 12 13 13 14 15 16 17 17 18 18 18 18 19 19
6 5 5 6 8 9 10 11 11 11 11 10 10 11 15 17 18 18 17 16 15 15 14 12 11 9 8 6 5 3 2 2 3 3 3 3 3 2 2 3 3 3 3 4 5 5 6 6 7 7 8 8 9 10 11 13 14 15 15 16 17 18 18 18 18 17 17 17 16
5 5 5 6 8 9 9 10 11 12 11 9 9 11 12 13 13 12 12 12 12 12 10 9 7 6 5 4 4 3 3 3 4 4 3 3 3 3 3 3 4 4 5 6 6 6 7 7 8 8 8 9 10 11 12 13 14 15 16 17 17 17 16 16 16 15 15 14 14
6 6 6 5 6 7 8 9 10 10 10 9 9 9 9 9 9 8 8 8 7 7 7 6 6 5 4 4 3 3 3 3 3 3 4 4 4 4 4 5 5 6 6 6 7 7 7 7 8 9 9 10 10 11 12 12 13 14 14 15 15 15 15 14 14 14 14 14 15
8 8 8 8 8 10 11 11 10 10 10 10 9 8 8 8 8 7 6 5 4 4 4 4 4 4 3 2 1 1 1 1 3 5 6 7 7 7 6 6 6 6 5 6 6 6 7 7 8 9 9 9 9 10 11 11 11 12 12 13 14 14 14 15 15 15 15 15 16
10 11 11 12 12 13 13 11 10 10 10 9 8 7 7 8 7 5 3 2 2 2 2 2 2 2 2 1 0 2 3 4 6 8 10 11 10 8 6 4 4 4 4 4 4 5 6 6 7 8 8 9 9 10 10 10 11 11 12 12 13 14 14 15 15 15 15 15 15
13 14 14 14 14 13 13 12 11 11 10 8 7 7 8 7 5 3 1 0 1 1 1 1 1 2 2 2 1 2 4 6 8 9 11 10 8 6 3 2 1 2 2 3 3 4 5 6 7 7 8 9 9 10 10 10 10 11 11 12 12 13 14 14 14 14 14 14 14
15 15 14 13 12 12 11 10 10 9 8 8 9 9 8 6 4 2 1 1 1 1 1 1 1 2 3 2 2 1 2 3 5 6 7 6 4 3 2 1 1 1 2 3 3 4 5 6 7 8 8 8 9 9 9 10 10 10 11 12 12 13 13 13 13 13 13 13 14
15 14 13 11 11 10 10 9 9 9 9 9 9 8 7 5 3 3 2 2 2 2 2 2 2 2 2 2 2 2 3 3 4 5 5 5 4 3 3 2 2 2 3 3 4 5 5 6 6 7 7 7 7 8 8 9 10 10 11 12 12 12 13 13 13 13 13 14 14
13 13 12 11 10 9 9 9 8 9 9 9 8 6 5 4 3 3 4 5 5 5 4 3 3 2 2 2 2 3 4 5 5 5 5 5 4 3 3 2 2 2 2 3 4 4 5 5 6 6 7 7 7 8 8 9 9 10 11 12 12 12 12 12 13 13 13 13 13
13 12 11 10 9 8 8 8 8 8 8 8 7 6 5 5 5 5 6 7 6 5 4 3 3 2 2 3 4 4 5 5 5 5 5 4 4 3 3 2 2 1 1 2 2 3 4 4 5 6 7 7 8 8 8 8 9 9 10 11 12 12 12 12 11 11 11 10 10
12 11 10 9 8 8 7 7 7 7 7 7 7 6 7 7 8 8 7 6 5 4 4 3 3 4 4 4 5 5 5 5 5 5 4 4 3 3 3 2 2 1 0 1 2 3 4 5 5 6 7 7 7 8 8 8 8 9 9 10 10 10 10 10 9 8 8 7 8
10 10 9 8 8 8 8 7 8 8 8 8 8 9 9 9 9 8 7 5 4 4 4 5 5 5 5 5 5 4 5 5 5 5 4 3 3 3 2 2 1 1 0 1 2 3 4 4 5 6 6 6 7 7 7 8 8 8 8 8 9 9 8 8 7 7 7 7 7
9 9 9 9 9 9 9 9 10 10 11 11 11 11 11 10 9 8 7 6 5 5 5 6 6 5 5 4 4 3 3 3 3 4 4 3 3 2 2 1 0 0 1 2 3 3 4 4 5 5 6 6 6 7 7 7 7 8 8 8 9 9 9 8 8 8 8 8 8
10 10 10 11 11 11 12 12 13 14 14 14 13 12 11 10 9 8 7 6 6 6 6 6 6 5 4 3 2 2 2 2 3 3 3 3 2 1 1 0 0 1 1 2 2 3 4 4 5 5 6 6 6 7 7 7 8 8 9 10 10 10 10 10 9 9 9 9 10
13 13 13 13 14 14 15 16 16 16 16 15 14 12 11 9 8 7 6 6 5 5 5 5 4 4 3 2 3 4 4 4 3 3 3 3 2 2 1 1 1 1 1 1 2 3 4 5 5 5 6 6 7 7 7 7 8 9 10 11 11 12 12 12 11 11 11 11 11
15 15 16 16 17 18 18 18 18 17 16 14 13 11 10 8 7 6 5 5 4 4 4 3 3 2 2 3 4 5 6 5 5 4 4 3 3 2 1 1 1 1 0 1 1 2 3 4 4 4 5 5 6 6 7 8 9 10 11 12 12 13 13 13 13 13 12 12 12
18 18 19 20 20 21 20 20 18 17 15 13 11 9 7 6 5 4 4 4 4 4 3 3 2 2 3 4 5 6 6 5 5 4 4 3 2 2 2 1 1 1 0 1 1 1 2 4 4 4 4 5 6 7 8 9 10 11 12 12 13 13 14 14 14 13 13 13 13
19 20 21 22 22 22 21 19 17 15 13 10 8 6 4 3 3 3 3 3 4 4 5 4 4 5 5 6 6 6 5 5 4 4 3 3 3 2 2 2 1 1 0 0 1 1 2 3 4 4 4 5 7 8 9 10 11 12 12 13 13 14 14 14 14 14 13 13 13
19 20 21 22 21 20 19 17 15 12 10 7 5 3 2 2 2 1 1 2 4 5 6 6 6 6 6 6 5 5 5 4 4 3 3 3 2 2 2 2 2 2 1 1 1 2 3 3 4 5 5 5 7 9 11 11 12 12 13 13 13 14 14 14 14 13 13 12 12
17 18 19 19 18 17 16 14 12 10 8 5 3 2 1 0 2 3 4 5 6 6 6 6 6 6 6 5 5 5 4 3 3 2 2 2 1 1 3 4 4 3 2 2 2 3 3 4 4 5 5 6 8 9 10 11 12 12 12 13 13 14 14 14 14 13 12 11 12
15 16 16 16 15 14 13 12 10 8 6 4 2 2 2 2 3 4 5 6 6 6 5 5 5 5 5 5 5 4 3 2 0 1 2 2 1 2 4 5 5 4 3 2 3 3 4 4 5 5 5 7 8 9 10 11 12 12 13 13 14 14 14 14 13 11 10 11 11
13 13 13 13 13 12 11 10 8 6 4 3 2 2 2 3 4 4 5 5 5 4 4 3 2 3 3 3 3 2 1 1 1 2 3 3 3 4 5 5 5 4 3 3 3 4 4 5 5 5 6 7 9 10 10 11 12 13 13 14 14 14 13 12 11 10 9 9 10
11 11 11 11 12 11 10 8 6 4 3 3 2 2 2 3 3 4 4 4 3 3 3 3 2 3 3 2 2 2 1 1 2 2 3 3 3 4 5 5 4 4 3 4 4 5 5 5 5 6 7 8 9 10 11 12 13 14 14 14 13 12 11 10 8 8 8 8 9
10 10 10 11 11 10 9 7 5 4 3 2 2 1 1 2 3 3 3 3 2 2 2 2 2 2 2 2 1 0 1 1 2 2 2 3 3 3 4 5 4 4 4 4 5 5 5 6 6 6 7 8 9 10 11 13 14 14 14 14 13 12 10 9 7 6 7 7 9
9 9 10 10 10 10 9 7 5 3 2 2 1 1 1 2 2 2 2 2 2 2 2 2 2 2 1 1 1 1 2 2 1 1 2 2 2 3 4 4 4 4 4 5 6 6 6 6 6 6 7 9 10 11 12 13 14 14 14 14 13 12 11 9 7 6 6 7 8
8 9 9 9 9 9 8 6 4 2 0 1 1 0 1 2 2 2 2 2 2 2 2 2 2 1 1 1 2 2 2 2 1 1 2 2 3 3 4 4 4 4 5 6 6 7 7 6 5 6 7 9 10 12 13 14 14 14 14 14 14 13 11 10 8 7 7 7 7
8 8 8 8 8 8 7 5 4 3 2 2 1 1 1 2 2 3 3 2 2 2 3 2 2 2 2 2 2 3 2 1 0 1 2 2 2 3 3 4 4 5 5 6 7 7 7 6 5 6 7 9 10 12 13 14 14 14 15 14 14 13 12 10 9 8 7 6 6
7 7 7 7 8 7 7 6 5 5 4 2 1 1 1 2 3 3 3 3 2 2 3 3 2 2 2 2 2 2 2 1 1 1 1 1 2 2 3 4 5 5 6 7 7 8 7 6 5 5 7 9 10 12 13 14 14 14 15 14 14 13 12 11 9 8 7 6 6
7 7 7 7 7 8 7 7 7 6 5 3 2 1 2 3 3 3 3 3 3 3 2 3 3 3 3 3 3 2 1 1 0 0 0 0 1 2 3 5 5 6 6 7 8 8 7 6 6 5 6 8 10 12 13 14 14 14 14 14 14 13 12 11 9 8 6 6 5
5 7 8 7 7 8 8 8 8 7 5 4 3 3 3 3 3 3 3 3 3 4 4 3 3 3 3 4 3 2 1 1 0 0 1 1 2 3 4 5 5 6 7 7 8 8 7 6 6 5 6 8 10 11 12 13 14 14 14 14 14 14 13 12 11 9 7 6 5
Wind_Direction
217 222 225 226 224 221 220 219 216 214 214 215 215 213 211 209 205 200 196 194 193 192 193 196 197 195 193 192 192 193 192 192 193 196 201 207 213 219 222 222 222 222 221 221 222 223 224 225 225 224 224 225 227 235 253 273 296 313 321 324 325 324 320 314 306 298 291 284 281
225 229 232 232 230 227 227 228 227 224 223 222 219 215 212 209 206 202 196 188 187 187 190 192 194 192 189 188 190 193 195 197 199 203 206 209 212 215 217 218 218 219 219 219 220 221 221 222 221 218 217 223 227 241 265 285 302 314 318 317 316 313 309 304 299 294 290 286 284
229 232 235 236 234 232 233 235 235 231 226 222 220 216 212 210 210 204 195 185 183 186 188 187 187 187 187 186 187 191 195 198 200 201 200 199 200 201 202 203 204 206 208 210 212 214 216 218 220 220 223 235 248 264 281 293 300 303 304 301 299 297 294 292 291 290 288 287 286
227 229 231 235 236 237 238 242 244 239 232 225 221 218 215 213 212 208 202 193 187 187 187 184 181 182 183 182 182 183 186 188 190 189 187 184 183 183 184 187 188 190 194 199 203 208 214 220 225 231 240 253 268 280 288 294 298 299 297 295 293 292 290 289 288 288 287 286 284
225 224 226 229 233 237 242 248 251 247 238 228 223 221 220 218 216 214 214 212 203 192 186 180 177 176 177 178 177 175 174 174 175 175 173 171 170 171 173 175 179 183 189 196 203 210 218 225 233 241 250 260 273 282 288 293 296 297 296 295 294 294 293 291 290 288 286 284 282
230 228 227 227 229 233 239 246 250 248 240 229 224 221 219 220 220 219 220 218 206 191 180 175 174 173 172 172 172 170 167 166 167 167 167 166 166 168 171 176 182 189 198 207 215 223 230 236 241 249 257 266 274 281 286 291 295 296 296 296 295 295 295 293 291 289 287 284 282
242 242 239 235 232 231 235 245 247 244 235 226 222 220 221 223 223 221 216 207 193 181 174 172 171 170 169 169 168 167 165 164 164 166 167 168 170 173 178 185 195 207 220 232 239 245 248 251 255 260 266 270 274 278 283 288 291 293 293 293 293 293 293 292 290 289 287 284 282
250 251 245 238 233 227 226 233 230 222 218 225 231 232 230 228 222 211 199 187 177 173 171 170 169 168 168 168 166 165 164 164 165 167 169 172 177 184 193 206 220 235 247 255 260 264 266 267 267 269 272 273 276 279 283 286 287 288 289 290 290 289 289 288 287 286 286 286 286
256 255 245 234 225 217 211 213 216 216 218 230 241 244 237 223 209 193 181 173 170 170 170 169 169 168 168 168 166 165 163 163 164 166 169 175 183 201 224 243 253 260 264 268 273 276 279 281 281 280 280 281 282 284 285 285 286 287 288 288 290 290 291 290 290 290 290 291 292
253 251 240 224 212 206 206 213 228 236 240 243 243 237 223 205 191 181 175 172 171 171 173 174 172 170 169 168 165 163 162 162 163 165 168 178 210 270 288 288 285 284 285 286 286 289 292 294 293 291 290 288 287 287 287 287 289 290 290 290 292 294 296 296 297 298 298 297 297
246 243 231 220 219 227 237 245 250 252 252 248 236 216 200 189 182 178 177 178 177 178 181 183 179 173 169 166 161 157 153 148 136 85 29 5 349 335 325 318 312 309 304 299 296 297 300 299 296 293 291 291 290 290 290 291 293 293 294 294 295 296 298 299 300 301 301 300 297
234 220 215 226 241 247 248 246 245 246 246 240 221 199 186 181 179 179 181 185 186 185 184 183 180 175 166 156 145 129 104 70 40 22 12 2 352 342 332 326 321 315 307 301 299 300 301 299 295 293 292 292 292 293 295 296 296 297 297 297 298 299 300 301 302 302 301 298 295
196 186 199 227 245 245 236 228 232 235 232 221 199 182 174 172 172 174 178 181 181 177 168 156 155 154 142 120 106 89 71 52 30 12 356 343 331 323 319 317 314 309 305 302 302 302 302 300 297 296 295 296 297 299 301 301 301 302 302 302 302 303 304 305 306 305 303 301 299
169 170 180 201 214 208 198 197 210 214 209 195 176 164 159 154 153 155 157 155 154 152 146 137 133 123 108 95 85 77 65 47 18 352 333 319 311 308 310 309 308 306 305 304 304 303 303 302 301 302 302 304 306 308 309 309 310 311 312 313 313 314 314 314 312 310 309 308 307
160 159 159 166 167 163 164 172 184 189 182 170 158 150 144 137 134 136 141 142 141 146 150 146 131 118 109 99 83 51 14 349 329 317 309 303 300 300 301 301 303 304 304 305 306 306 307 309 311 312 314 317 320 321 321 321 322 322 323 324 322 321 319 317 314 312 311 310 311
152 150 149 148 145 142 141 146 156 160 157 153 151 147 140 135 131 134 145 155 158 163 159 148 122 108 107 116 193 267 274 277 280 281 281 283 285 286 287 292 296 301 305 311 314 318 322 325 326 328 330 332 332 332 331 330 330 330 328 326 322 319 316 313 311 310 309 309 309
142 140 138 135 131 127 125 126 134 142 148 153 156 156 154 152 152 157 179 246 248 191 151 110 92 96 105 119 173 243 256 259 255 253 254 257 262 264 268 272 285 306 321 328 333 343 351 355 354 351 348 345 342 339 337 335 333 331 327 323 319 315 311 309 307 306 306 305 305
135 132 129 125 122 120 120 124 131 141 151 158 162 163 166 172 183 200 229 273 284 280 255 164 136 125 121 123 138 189 218 221 219 217 217 215 212 204 185 161 99 21 3 359 2 8 12 13 9 3 357 351 346 342 339 335 332 328 325 322 318 314 310 307 304 303 302 302 302
132 130 127 124 123 123 125 129 137 147 155 159 162 165 172 187 210 225 225 219 220 227 225 206 183 166 155 146 140 145 152 158 164 169 169 167 161 153 139 120 84 45 28 26 26 24 19 13 5 357 350 344 340 337 333 330 327 326 325 324 321 318 313 308 304 301 300 299 299
134 132 130 127 127 127 129 134 142 150 156 160 165 172 182 196 208 206 194 185 185 191 201 209 202 189 176 173 165 157 154 154 153 152 150 148 143 137 129 118 95 61 45 41 36 26 15 1 349 340 334 330 328 328 326 325 325 325 325 324 321 318 313 308 303 300 299 299 301
134 131 127 126 125 127 129 135 143 150 155 159 163 168 171 171 171 173 173 173 173 178 190 203 200 186 177 180 175 167 160 158 155 151 147 144 142 138 138 136 134 116 77 50 29 8 352 339 332 326 324 322 322 321 322 323 324 324 322 320 318 315 311 306 302 300 300 302 304
127 123 122 124 127 130 134 140 146 152 155 158 160 162 163 163 164 168 173 176 176 180 189 197 194 186 181 180 179 174 170 166 162 155 148 145 144 145 148 153 159 164 163 351 344 335 329 325 320 318 317 317 316 316 317 320 322 321 318 315 313 312 310 308 306 305 304 304 304
121 121 123 128 133 138 144 149 156 160 163 164 164 163 164 167 171 176 181 186 189 191 194 195 192 187 184 184 185 184 180 172 161 150 140 134 132 133 140 148 159 183 296 320 324 324 323 322 321 317 315 314 313 314 316 320 323 321 318 315 315 315 317 318 318 315 310 305 302
128 130 133 137 142 147 153 158 162 164 165 165 166 168 170 175 180 184 189 192 195 197 196 195 192 189 188 188 189 186 175 160 144 133 124 115 111 113 122 136 165 278 309 319 322 327 331 334 334 330 325 320 317 316 319 324 326 326 325 326 326 326 326 326 325 323 319 314 314
144 144 144 147 150 154 159 162 164 164 165 166 169 172 176 180 183 186 189 193 197 199 199 197 196 196 193 185 169 152 139 132 128 126 123 119 120 130 148 168 230 285 307 320 334 345 354 358 357 351 342 333 327 325 325 327 329 330 331 332 333 331 328 325 324 324 326 327 331
153 152 151 153 156 159 162 164 165 166 167 170 172 174 175 175 176 177 181 186 193 196 197 197 199 200 190 160 134 126 125 127 133 139 141 140 148 167 197 219 227 255 305 335 356 8 15 17 14 5 352 340 333 328 326 326 326 326 328 330 331 331 329 326 325 325 328 331 334
157 156 156 158 160 162 164 166 167 168 170 171 171 170 169 169 169 171 175 179 182 186 188 189 189 185 166 138 130 129 131 135 143 150 151 149 149 155 167 194 211 236 295 351 357 12 24 26 18 7 352 338 327 321 319 320 319 320 322 325 326 328 328 327 326 325 326 328 330
159 159 159 161 163 164 165 167 168 168 167 165 163 164 169 178 187 197 205 203 194 186 181 179 173 157 140 133 134 137 140 144 150 155 160 164 168 170 174 182 189 207 247 313 316 356 24 25 12 3 350 332 317 311 312 315 318 321 323 325 326 327 327 326 324 323 323 324 326
160 160 161 162 163 164 165 166 165 162 159 156 156 162 182 212 232 244 244 227 196 178 172 170 162 149 142 141 143 146 148 151 158 167 179 192 201 202 195 179 163 155 163 302 311 1 19 13 356 347 339 325 315 315 319 324 327 328 329 329 328 328 326 325 322 321 320 321 323
161 161 161 162 162 163 163 163 161 159 158 159 165 190 238 263 247 225 191 161 154 157 161 164 160 154 150 149 152 154 156 163 177 191 208 223 219 194 165 146 130 117 97 31 359 10 15 3 345 338 332 323 319 321 325 329 331 332 331 329 329 327 326 324 322 320 320 322 323
161 161 162 162 162 161 160 160 160 162 165 169 178 200 236 121 123 127 129 131 136 145 155 162 163 162 160 162 164 164 165 172 189 214 245 266 261 138 123 116 107 97 78 40 14 9 6 354 345 341 333 319 316 320 325 329 330 328 327 326 325 324 323 322 320 320 321 324 326
160 161 162 162 161 160 158 157 157 157 158 154 145 127 114 117 124 130 132 134 137 143 152 161 168 174 175 172 171 169 166 166 184 324 329 340 15 77 93 94 91 84 66 35 9 360 355 349 346 342 331 317 318 323 327 328 327 325 323 322 322 321 320 319 318 319 322 326 327
158 161 163 163 161 159 156 153 147 141 132 120 110 108 115 124 130 133 136 141 144 148 150 150 156 161 156 142 137 135 126 78 7 357 358 10 42 69 78 79 77 69 50 22 359 350 347 345 344 337 326 320 324 328 330 328 325 323 323 323 322 321 319 318 317 319 323 328 329
160 163 165 165 163 160 156 152 147 138 123 107 97 104 123 134 135 136 140 145 148 153 156 151 141 132 122 110 107 98 72 22 5 9 20 33 51 61 63 64 63 52 30 8 353 346 344 344 342 332 324 324 329 331 329 327 326 326 328 330 329 327 324 320 319 321 326 329 328
164 167 168 168 166 163 160 158 159 152 132 101 87 101 137 151 150 148 149 152 154 156 159 159 154 145 140 136 126 41 348 341 353 20 40 49 52 48 47 48 46 32 11 356 347 343 342 342 340 331 325 326 328 327 326 327 329 333 336 338 339 337 334 329 326 327 329 327 324
169 172 173 171 170 168 165 164 160 150 121 73 58 85 167 181 178 174 173 179 179 176 174 172 163 156 159 188 243 273 280 284 298 42 69 64 53 41 36 33 27 13 356 347 342 340 341 342 341 333 326 324 325 325 327 330 333 337 340 343 343 343 341 338 335 332 329 325 319
175 179 179 177 176 174 172 170 169 166 118 11 14 10 207 211 211 214 219 221 211 204 202 200 192 193 208 239 257 263 266 264 243 105 85 70 51 35 25 17 7 354 344 340 338 339 340 341 340 332 323 320 322 324 327 329 333 337 340 342 343 343 342 341 338 335 331 324 316
180 185 188 188 187 187 188 192 207 233 269 306 331 317 232 225 228 234 240 241 226 215 214 215 213 219 233 250 267 279 290 303 25 82 76 66 44 21 5 354 346 339 336 336 337 337 337 336 335 327 319 317 318 321 324 327 331 334 337 338 340 341 341 340 338 335 331 324 315
177 185 193 200 203 205 209 218 233 246 258 269 294 280 242 231 234 237 243 248 240 228 222 225 229 238 252 270 290 308 328 346 20 78 78 64 33 359 342 335 331 330 332 334 334 334 332 330 327 320 315 313 316 319 323 326 328 330 332 335 336 337 338 337 336 334 330 323 313
174 180 191 205 213 218 224 231 239 243 246 249 264 260 238 226 229 232 239 248 252 251 246 244 248 257 269 284 295 304 318 346 30 114 111 29 340 327 323 322 323 327 329 331 330 328 326 324 321 316 313 313 315 318 321 323 324 326 328 331 332 334 334 334 333 331 327 320 310
186 187 192 204 215 225 232 239 241 242 245 257 269 268 250 231 228 232 237 246 257 264 263 257 255 259 267 275 282 283 276 248 247 258 274 291 303 309 312 314 317 321 324 325 324 322 320 318 314 311 311 314 315 316 318 320 321 322 324 326 329 331 331 332 331 329 325 317 306
Height
775 777 778 779 779 780 780 781 780 781 782 784 784 785 786 787 788 789 789 790 790 791 792 794 795 796 797 798 799 799 800 801 802 803 804 805 806 807 808 808 809 809 810 811 812 813 813 814 815 815 816 817 817 818 819 819 819 820 820 821 821 822 823 823 823 824 824 824 824
776 777 778 779 779 779 780 780 780 780 782 784 785 786 787 788 789 790 791 791 791 792 793 795 796 796 797 798 799 799 800 801 802 802 803 804 805 806 806 807 808 809 809 810 811 811 812 813 814 814 815 815 816 817 817 818 818 819 819 820 820 821 822 822 823 823 823 823 824
775 776 778 778 779 779 779 779 779 780 781 784 785 786 787 789 790 790 791 791 791 792 793 794 795 796 796 797 798 799 800 800 801 802 802 803 804 805 806 806 807 808 809 809 810 810 811 812 812 813 814 814 814 815 816 816 817 817 818 818 819 820 820 821 821 821 822 822 822
774 775 776 777 778 779 779 779 779 780 781 783 785 786 787 788 789 790 791 791 791 792 793 794 795 795 796 797 798 799 799 800 800 801 802 803 804 804 805 806 807 807 808 809 809 809 810 810 811 812 812 813 813 814 814 814 815 816 816 817 817 818 819 819 820 820 820 820 821
774 774 775 776 777 778 779 780 781 782 783 784 786 787 788 788 789 790 791 791 792 793 794 794 795 795 796 797 798 798 799 799 800 801 802 803 803 804 805 806 806 807 807 808 808 809 809 809 810 810 810 811 811 812 812 813 814 814 815 815 816 816 817 818 818 818 819 819 819
774 774 774 775 776 778 780 780 782 783 784 786 788 789 789 789 789 790 791 793 794 794 794 794 795 795 796 797 797 798 799 799 800 801 802 802 803 804 804 805 805 806 806 807 807 808 808 808 809 809 809 810 810 810 811 812 812 813 814 814 814 815 815 816 816 816 817 817 817
775 775 775 775 776 779 780 781 783 784 785 786 788 789 789 789 790 791 792 793 794 795 795 795 795 795 796 797 797 798 798 799 799 800 801 802 803 803 804 804 804 805 806 806 807 807 807 807 808 808 808 809 809 809 810 810 811 812 812 813 813 813 814 814 814 815 815 816 816
774 774 775 775 776 778 780 781 783 784 784 787 789 790 790 790 791 792 793 794 795 795 795 795 795 795 796 796 797 797 798 799 799 800 801 801 802 802 803 803 804 804 805 806 806 806 806 807 807 807 807 808 808 809 809 809 810 810 811 811 812 812 812 812 813 813 813 814 814
771 772 773 774 775 777 779 780 782 783 784 787 789 789 789 790 791 792 794 795 796 796 795 795 795 795 796 796 796 797 797 798 799 799 800 800 801 801 802 802 803 804 804 805 805 805 806 806 806 806 807 807 807 808 808 808 809 809 810 810 810 810 810 811 811 811 811 811 811
770 771 772 773 774 776 778 779 782 783 785 786 787 788 789 789 790 791 793 795 795 795 796 796 795 795 795 795 795 796 796 797 798 798 799 799 800 800 801 802 802 803 804 804 804 804 805 805 805 805 806 806 807 807 807 808 808 809 809 809 809 809 809 809 809 810 810 809 809
770 770 771 773 774 775 777 779 781 783 784 786 786 787 788 789 790 791 793 794 794 794 795 795 794 794 794 794 794 794 795 796 797 797 798 798 799 799 800 801 802 802 803 803 803 804 804 804 804 805 805 806 806 807 807 807 807 808 808 808 808 808 808 808 808 808 808 808 808
770 770 771 772 773 775 777 779 781 782 784 785 786 787 788 789 790 791 792 793 793 794 794 794 794 793 793 793 793 794 794 795 795 796 797 797 798 799 799 800 801 801 802 802 803 803 803 803 804 804 804 805 805 806 806 806 806 807 807 807 806 807 807 807 807 807 807 807 807
770 770 771 771 772 774 776 778 779 781 783 784 786 787 789 790 791 791 792 793 794 794 794 794 793 792 792 792 792 793 794 794 795 796 797 797 798 799 799 799 800 801 801 801 802 802 802 802 803 803 803 804 804 805 805 805 805 805 805 805 805 805 806 806 806 806 806 806 806
770 770 770 771 772 773 775 777 779 781 783 784 786 787 789 790 791 791 792 794 794 795 795 795 793 792 791 792 792 793 793 794 795 797 798 799 799 798 798 799 799 800 801 801 801 801 801 801 802 802 802 803 803 804 804 804 804 804 804 805 805 805 805 805 805 805 805 806 806
769 769 770 771 772 773 774 776 779 781 783 785 786 788 789 790 791 792 793 794 795 796 796 795 793 792 791 792 792 793 793 794 795 797 799 800 799 799 798 799 799 800 800 800 800 800 801 801 801 801 802 802 802 803 803 803 804 804 804 804 804 804 804 805 805 805 805 805 805
769 769 770 771 772 774 774 776 778 781 783 785 787 788 790 791 792 793 794 794 795 796 796 795 793 792 791 791 792 793 793 793 794 796 798 800 801 800 799 799 799 800 800 800 800 800 800 800 801 801 801 802 802 802 802 803 803 804 804 804 804 804 804 804 804 804 804 804 804
769 770 771 772 773 774 775 776 779 781 784 785 787 789 791 792 792 793 794 794 795 796 795 794 792 792 791 792 792 792 792 792 794 796 799 801 801 801 799 799 799 799 800 800 800 800 800 800 800 801 801 801 801 802 802 803 803 803 804 804 804 804 804 804 804 804 804 804 804
769 770 771 773 774 775 776 778 780 782 784 786 788 790 791 792 792 793 793 794 795 795 794 794 793 792 792 792 792 793 793 793 795 797 799 800 800 800 799 799 799 799 800 800 800 800 800 800 800 800 801 801 801 801 802 802 803 803 803 803 803 803 803 803 803 803 803 803 803
770 771 772 773 774 776 777 779 780 783 785 787 789 790 791 791 792 792 793 794 794 795 795 795 794 794 793 793 793 793 794 795 796 797 798 798 799 799 799 799 799 799 799 800 800 800 800 800 800 800 800 801 801 801 801 802 802 802 802 802 803 803 803 803 803 803 803 802 802
771 772 773 774 775 776 778 779 782 784 785 787 788 789 790 791 792 793 793 794 794 795 795 796 795 794 794 794 794 794 795 795 796 797 797 797 798 798 798 799 799 799 799 799 800 800 800 800 800 800 800 800 800 801 801 801 801 802 802 802 802 802 802 802 802 802 802 802 802
772 772 773 774 775 777 779 781 783 784 786 787 788 789 789 790 792 793 794 794 794 794 794 795 795 794 794 795 795 795 795 795 796 796 796 797 797 797 798 799 799 799 799 799 800 800 800 800 800 800 800 800 800 800 800 800 801 801 801 801 802 801 801 801 801 801 801 801 801
772 772 774 775 776 778 780 782 784 785 786 787 788 789 789 791 792 793 794 794 794 794 794 795 795 795 795 795 795 795 795 795 795 795 796 796 797 797 798 799 799 799 799 799 799 799 800 800 799 799 799 799 800 800 800 800 800 800 801 801 801 801 801 801 800 800 800 800 800
772 773 774 776 777 779 780 782 784 785 786 788 789 789 791 792 793 794 794 794 794 794 794 795 795 795 795 794 794 794 794 795 795 795 796 796 797 798 798 799 799 799 799 799 799 799 799 799 799 799 799 799 799 799 799 799 800 800 800 800 800 800 800 800 800 799 799 799 799
774 775 776 778 779 780 782 783 784 786 787 789 790 791 792 793 794 794 794 794 794 795 795 795 795 795 795 794 794 794 794 795 795 795 796 797 797 798 798 799 799 799 799 799 799 799 799 799 799 799 799 799 799 799 799 799 800 800 800 800 800 799 799 799 799 799 799 798 798
776 777 778 779 780 781 783 784 786 787 789 790 791 792 793 794 794 795 795 795 795 795 795 795 795 795 794 794 794 794 794 795 795 796 796 797 798 798 799 799 799 799 799 799 799 799 799 798 798 798 798 798 798 799 799 799 799 799 799 799 799 799 799 799 798 798 798 797 797
777 779 779 781 782 783 784 786 787 789 790 791 792 793 794 794 794 795 795 795 795 795 795 795 795 794 794 794 794 794 795 795 795 796 797 797 798 798 798 799 799 799 799 799 798 798 798 798 798 798 798 798 798 799 799 799 799 799 799 799 799 798 798 798 797 797 797 796 796
779 780 781 782 784 785 786 788 789 790 791 792 793 793 794 794 794 794 794 794 794 794 794 794 794 794 794 794 794 794 795 795 796 796 797 797 797 798 798 798 798 798 798 798 798 798 798 798 798 798 798 798 798 798 798 799 799 799 799 798 798 798 797 797 796 796 796 795 795
780 781 783 784 785 786 787 789 790 791 792 792 793 793 793 794 794 794 794 794 794 794 794 794 794 794 794 794 794 794 795 795 796 796 796 797 797 797 797 798 798 798 798 798 798 797 798 798 798 798 798 798 798 798 798 798 798 798 798 798 797 797 796 796 796 795 795 794 794
780 782 783 784 786 787 788 789 790 791 791 792 792 793 793 793 793 792 792 793 793 793 793 794 794 794 794 794 794 794 795 795 795 796 796 796 796 797 797 797 797 797 797 797 797 797 797 797 797 797 798 798 797 797 797 797 797 797 797 796 796 796 796 795 795 794 794 794 793
781 782 783 784 786 787 788 789 789 790 790 791 791 791 791 791 791 791 791 791 792 792 793 793 793 793 794 794 794 794 795 795 795 795 795 795 795 796 796 796 796 796 796 797 797 797 797 797 797 797 797 797 797 797 797 796 796 796 796 795 795 795 795 794 794 794 794 793 793
781 782 783 784 785 786 787 787 788 789 789 789 790 790 790 790 790 790 790 791 791 792 792 793 793 793 794 794 794 794 794 794 794 794 794 794 795 795 795 795 796 796 796 796 796 796 797 797 797 796 796 796 796 796 796 796 796 795 795 795 794 794 794 794 793 793 793 792 792
780 781 782 783 784 785 786 786 787 787 788 788 789 789 789 789 789 789 790 790 791 791 792 792 792 793 793 793 793 793 794 794 794 794 794 794 794 794 794 795 795 795 796 796 796 796 796 796 796 796 796 795 795 795 795 795 795 795 794 794 794 794 793 793 793 792 792 792 792
780 781 782 782 783 784 785 785 786 786 787 787 787 788 788 788 789 789 789 790 790 791 791 792 792 792 792 792 793 793 793 793 793 793 793 793 794 794 794 794 795 795 795 795 795 795 795 795 795 795 795 794 794 794 794 794 794 794 794 794 793 793 792 792 792 792 791 791 791
779 780 781 782 782 783 784 784 785 785 786 786 787 787 787 788 788 789 789 789 790 790 790 791 791 791 792 792 792 792 792 792 793 793 793 793 793 794 794 794 794 794 795 795 795 795 795 795 795 794 794 794 794 794 794 794 794 793 793 793 792 792 792 791 791 791 791 791 791
779 779 780 781 782 782 783 784 784 785 785 786 786 786 787 787 788 788 789 789 789 789 790 790 790 791 791 791 791 792 792 792 792 792 793 793 793 793 794 794 794 794 794 794 794 794 794 794 794 794 794 794 794 794 794 793 793 793 792 792 792 791 791 791 790 790 790 791 791
778 779 780 780 781 782 782 783 783 784 784 785 785 786 786 787 787 787 788 788 788 789 789 789 790 790 790 791 791 791 792 792 792 792 792 792 792 793 793 793 793 794 794 794 794 794 794 794 794 794 794 793 793 793 793 793 793 792 792 791 791 791 790 790 790 790 790 790 790
778 779 779 780 781 781 782 782 783 783 784 784 784 785 785 786 786 787 787 787 788 788 789 789 789 790 790 790 791 791 791 791 791 791 791 791 792 792 792 793 793 793 793 793 793 793 793 793 793 793 793 793 793 793 792 792 792 792 791 791 791 790 790 790 790 789 789 790 790
778 779 779 780 780 781 781 782 782 783 783 784 784 784 785 785 786 786 786 787 787 788 788 789 789 789 789 790 790 790 790 790 790 790 790 791 791 791 792 792 793 793 793 793 793 793 793 793 793 793 793 792 792 792 792 792 791 791 791 790 790 790 790 790 789 789 789 789 790
778 778 779 779 780 780 781 781 782 782 782 783 783 784 784 785 785 786 786 786 787 787 788 788 788 789 789 789 789 790 790 790 790 790 790 790 791 791 791 792 792 792 792 792 792 792 792 792 792 792 792 792 792 792 791 791 791 790 790 790 790 790 790 789 789 789 789 789 789
777 778 778 779 779 780 780 780 781 781 782 782 783 783 784 784 784 785 785 786 786 786 787 787 788 788 788 789 789 789 789 789 789 789 790 790 790 790 791 791 791 791 791 791 791 791 791 792 792 792 792 792 791 791 790 790 790 790 790 790 789 789 789 789 789 789 789 789 789
776 777 777 778 778 779 779 780 780 780 781 781 781 782 783 783 784 784 785 785 785 786 786 786 787 787 788 788 788 788 789 789 789 789 789 789 790 790 790 790 790 790 791 791 791 791 791 791 791 791 791 791 791 790 790 790 789 789 789 789 789 789 789 789 789 789 788 788 788